| time (UTC) | temp F | wind direction | speed knots | gust knots | rain 1hr in | rain 24hr in | rain mn in | humidity % | barometer mb |
| 20260906222049 | 70 | 303 | 4.3 | 0.0 | 0.00 | 0.00 | 0.00 | 60 | 1014.9 |
| 20260906221551 | 70 | 340 | 4.3 | 0.0 | 0.00 | 0.00 | 0.00 | 58 | 1014.8 |
| 20260906221048 | 70 | 350 | 4.3 | 0.0 | 0.00 | 0.00 | 0.00 | 56 | 1014.8 |
| 20260906220548 | 70 | 346 | 4.3 | 0.0 | 0.00 | 0.00 | 0.00 | 57 | 1014.8 |
| 20260906220047 | 70 | 360 | 5.2 | 0.0 | 0.00 | 0.00 | 0.00 | 57 | 1014.8 |
| 20260906215547 | 70 | 25 | 6.1 | 0.0 | 0.00 | 0.00 | 0.00 | 58 | 1014.7 |
| 20260906215047 | 70 | 355 | 6.1 | 0.0 | 0.00 | 0.00 | 0.00 | 57 | 1014.8 |
| 20260906214547 | 71 | 355 | 5.2 | 0.0 | 0.00 | 0.00 | 0.00 | 60 | 1014.8 |
| 20260906214048 | 71 | 350 | 3.5 | 0.0 | 0.00 | 0.00 | 0.00 | 59 | 1014.8 |
| 20260906213547 | 71 | 64 | 3.5 | 0.0 | 0.00 | 0.00 | 0.00 | 56 | 1014.8 |
| 20260906213051 | 71 | 340 | 3.5 | 0.0 | 0.00 | 0.00 | 0.00 | 56 | 1014.8 |
| 20260906212547 | 71 | 338 | 1.7 | 0.0 | 0.00 | 0.00 | 0.00 | 57 | 1014.8 |
| 20260906212049 | 71 | 5 | 0.9 | 0.0 | 0.00 | 0.00 | 0.00 | 58 | 1014.7 |
| 20260906211548 | 70 | 9 | 1.7 | 0.0 | 0.00 | 0.00 | 0.00 | 54 | 1014.8 |
| 20260906211046 | 70 | 24 | 2.6 | 0.0 | 0.00 | 0.00 | 0.00 | 57 | 1014.8 |
| 20260906210548 | 70 | 40 | 2.6 | 0.0 | 0.00 | 0.00 | 0.00 | 55 | 1014.8 |
| 20260906210044 | 70 | 26 | 2.6 | 0.0 | 0.00 | 0.00 | 0.00 | 58 | 1014.7 |
| 20260906205546 | 70 | 110 | 3.5 | 0.0 | 0.00 | 0.00 | 0.00 | 54 | 1014.6 |
| 20260906205045 | 70 | 75 | 3.5 | 0.0 | 0.00 | 0.00 | 0.00 | 61 | 1014.6 |
| 20260906204601 | 69 | 37 | 3.5 | 0.0 | 0.00 | 0.00 | 0.00 | 57 | 1014.5 |
| 20260906204044 | 69 | 63 | 3.5 | 0.0 | 0.00 | 0.00 | 0.00 | 56 | 1014.6 |
| 20260906203544 | 70 | 56 | 3.5 | 0.0 | 0.00 | 0.00 | 0.00 | 60 | 1014.5 |
| 20260906203046 | 70 | 64 | 3.5 | 0.0 | 0.00 | 0.00 | 0.00 | 56 | 1014.4 |
| 20260906202544 | 70 | 55 | 3.5 | 0.0 | 0.00 | 0.00 | 0.00 | 54 | 1014.5 |
| 20260906202044 | 70 | 19 | 4.3 | 0.0 | 0.00 | 0.00 | 0.00 | 56 | 1014.4 |
| 20260906201558 | 70 | 88 | 5.2 | 0.0 | 0.00 | 0.00 | 0.00 | 55 | 1014.5 |
| 20260906201043 | 70 | 63 | 6.1 | 0.0 | 0.00 | 0.00 | 0.00 | 54 | 1014.4 |
| 20260906200544 | 70 | 55 | 6.1 | 0.0 | 0.00 | 0.00 | 0.00 | 55 | 1014.4 |
| 20260906200043 | 70 | 62 | 5.2 | 0.0 | 0.00 | 0.00 | 0.00 | 56 | 1014.4 |
| 20260906195543 | 71 | 59 | 4.3 | 0.0 | 0.00 | 0.00 | 0.00 | 55 | 1014.4 |
| 20260906195045 | 71 | 355 | 3.5 | 0.0 | 0.00 | 0.00 | 0.00 | 53 | 1014.4 |
| 20260906194542 | 70 | 52 | 4.3 | 0.0 | 0.00 | 0.00 | 0.00 | 56 | 1014.5 |
| 20260906194041 | 70 | 355 | 3.5 | 0.0 | 0.00 | 0.00 | 0.00 | 58 | 1014.5 |
| 20260906193541 | 69 | 36 | 3.5 | 0.0 | 0.00 | 0.00 | 0.00 | 56 | 1014.5 |
| 20260906193041 | 69 | 24 | 3.5 | 0.0 | 0.00 | 0.00 | 0.00 | 57 | 1014.4 |
| 20260906192541 | 69 | 47 | 4.3 | 0.0 | 0.00 | 0.00 | 0.00 | 58 | 1014.5 |
| 20260906192041 | 69 | 48 | 4.3 | 0.0 | 0.00 | 0.00 | 0.00 | 60 | 1014.6 |
| 20260906191541 | 69 | 32 | 3.5 | 0.0 | 0.00 | 0.00 | 0.00 | 59 | 1014.6 |
| 20260906191040 | 70 | 355 | 3.5 | 0.0 | 0.00 | 0.00 | 0.00 | 55 | 1014.6 |
| 20260906190542 | 70 | 22 | 4.3 | 0.0 | 0.00 | 0.00 | 0.00 | 55 | 1014.7 |
| 20260906190039 | 70 | 55 | 4.3 | 0.0 | 0.00 | 0.00 | 0.00 | 55 | 1014.6 |
| 20260906185546 | 70 | 62 | 4.3 | 0.0 | 0.00 | 0.00 | 0.00 | 59 | 1014.6 |
| 20260906185039 | 69 | 17 | 4.3 | 0.0 | 0.00 | 0.00 | 0.00 | 60 | 1014.7 |
| 20260906184539 | 69 | 5 | 4.3 | 0.0 | 0.00 | 0.00 | 0.00 | 57 | 1014.7 |
| 20260906184038 | 69 | 69 | 5.2 | 0.0 | 0.00 | 0.00 | 0.00 | 59 | 1014.8 |
| 20260906183538 | 69 | 28 | 5.2 | 0.0 | 0.00 | 0.00 | 0.00 | 60 | 1014.9 |
| 20260906183040 | 69 | 22 | 4.3 | 0.0 | 0.00 | 0.00 | 0.00 | 63 | 1014.9 |
| 20260906182539 | 69 | 355 | 3.5 | 0.0 | 0.00 | 0.00 | 0.00 | 57 | 1014.9 |
| 20260906182038 | 69 | 32 | 3.5 | 0.0 | 0.00 | 0.00 | 0.00 | 59 | 1014.9 |
| 20260906181538 | 69 | 28 | 4.3 | 0.0 | 0.00 | 0.00 | 0.00 | 57 | 1014.9 |
| 20260906181037 | 69 | 32 | 5.2 | 0.0 | 0.00 | 0.00 | 0.00 | 59 | 1014.9 |
| 20260906180537 | 69 | 60 | 4.3 | 0.0 | 0.00 | 0.00 | 0.00 | 60 | 1014.9 |
| 20260906180049 | 69 | 5 | 4.3 | 0.0 | 0.00 | 0.00 | 0.00 | 59 | 1015.0 |
| 20260906175535 | 69 | 32 | 5.2 | 0.0 | 0.00 | 0.00 | 0.00 | 59 | 1015.1 |
| 20260906175034 | 69 | 15 | 4.3 | 0.0 | 0.00 | 0.00 | 0.00 | 60 | 1015.1 |
| 20260906174534 | 69 | 47 | 4.3 | 0.0 | 0.00 | 0.00 | 0.00 | 60 | 1015.1 |
| 20260906174036 | 68 | 36 | 5.2 | 0.0 | 0.00 | 0.00 | 0.00 | 58 | 1015.1 |
| 20260906173532 | 68 | 67 | 5.2 | 0.0 | 0.00 | 0.00 | 0.00 | 61 | 1015.1 |
| 20260906173032 | 68 | 61 | 4.3 | 0.0 | 0.00 | 0.00 | 0.00 | 60 | 1015.2 |
| 20260906172532 | 68 | 65 | 4.3 | 0.0 | 0.00 | 0.00 | 0.00 | 62 | 1015.3 |
| 20260906172030 | 68 | 50 | 4.3 | 0.0 | 0.00 | 0.00 | 0.00 | 61 | 1015.3 |
| 20260906171531 | 67 | 34 | 3.5 | 0.0 | 0.00 | 0.00 | 0.00 | 60 | 1015.4 |
| 20260906171030 | 67 | 59 | 5.2 | 0.0 | 0.00 | 0.00 | 0.00 | 62 | 1015.4 |
| 20260906170529 | 67 | 78 | 6.1 | 0.0 | 0.00 | 0.00 | 0.00 | 63 | 1015.5 |
| 20260906170030 | 67 | 78 | 6.1 | 0.0 | 0.00 | 0.00 | 0.00 | 62 | 1015.5 |
| 20260906165529 | 67 | 55 | 6.1 | 0.0 | 0.00 | 0.00 | 0.00 | 65 | 1015.5 |
| 20260906165029 | 67 | 17 | 5.2 | 0.0 | 0.00 | 0.00 | 0.00 | 64 | 1015.5 |
| 20260906164530 | 67 | 100 | 5.2 | 0.0 | 0.00 | 0.00 | 0.00 | 63 | 1015.4 |
| 20260906164028 | 67 | 69 | 5.2 | 0.0 | 0.00 | 0.00 | 0.00 | 62 | 1015.4 |
| 20260906163528 | 67 | 27 | 6.1 | 0.0 | 0.00 | 0.00 | 0.00 | 67 | 1015.4 |
| 20260906163027 | 67 | 110 | 6.1 | 0.0 | 0.00 | 0.00 | 0.00 | 65 | 1015.3 |
| 20260906162530 | 67 | 73 | 6.1 | 0.0 | 0.00 | 0.00 | 0.00 | 66 | 1015.5 |
| 20260906162026 | 67 | 38 | 7.0 | 0.0 | 0.00 | 0.00 | 0.00 | 64 | 1015.5 |
| 20260906161533 | 66 | 104 | 8.7 | 0.0 | 0.00 | 0.00 | 0.00 | 62 | 1015.6 |
| 20260906161024 | 66 | 60 | 7.8 | 0.0 | 0.00 | 0.00 | 0.00 | 65 | 1015.5 |
| 20260906160523 | 66 | 27 | 7.8 | 0.0 | 0.00 | 0.00 | 0.00 | 67 | 1015.5 |
| 20260906160022 | 66 | 82 | 7.0 | 0.0 | 0.00 | 0.00 | 0.00 | 66 | 1015.5 |
| 20260906155524 | 66 | 26 | 7.0 | 0.0 | 0.00 | 0.00 | 0.00 | 68 | 1015.5 |
| 20260906155023 | 66 | 44 | 7.0 | 0.0 | 0.00 | 0.00 | 0.00 | 70 | 1015.5 |
| 20260906154536 | 66 | 46 | 6.1 | 0.0 | 0.00 | 0.00 | 0.00 | 69 | 1015.5 |
| 20260906154021 | 66 | 42 | 7.0 | 0.0 | 0.00 | 0.00 | 0.00 | 66 | 1015.4 |
| 20260906153520 | 66 | 26 | 7.8 | 0.0 | 0.00 | 0.00 | 0.00 | 67 | 1015.5 |
| 20260906153021 | 66 | 49 | 8.7 | 0.0 | 0.00 | 0.00 | 0.00 | 68 | 1015.4 |
| 20260906152522 | 66 | 67 | 9.6 | 0.0 | 0.00 | 0.00 | 0.00 | 67 | 1015.4 |
| 20260906152021 | 66 | 57 | 8.7 | 0.0 | 0.00 | 0.00 | 0.00 | 69 | 1015.4 |
| 20260906151520 | 66 | 71 | 7.8 | 0.0 | 0.00 | 0.00 | 0.00 | 67 | 1015.4 |
| 20260906151020 | 65 | 42 | 7.0 | 0.0 | 0.00 | 0.00 | 0.00 | 68 | 1015.5 |
| 20260906150518 | 65 | 55 | 7.0 | 0.0 | 0.00 | 0.00 | 0.00 | 68 | 1015.5 |
| 20260906150016 | 65 | 88 | 6.1 | 0.0 | 0.00 | 0.00 | 0.00 | 68 | 1015.4 |
| 20260906145515 | 65 | 59 | 5.2 | 0.0 | 0.00 | 0.00 | 0.00 | 71 | 1015.1 |
| 20260906145015 | 65 | 53 | 5.2 | 0.0 | 0.00 | 0.00 | 0.00 | 71 | 1015.3 |
| 20260906144517 | 65 | 50 | 4.3 | 0.0 | 0.00 | 0.00 | 0.00 | 72 | 1015.3 |
| 20260906144013 | 64 | 26 | 3.5 | 0.0 | 0.00 | 0.00 | 0.00 | 72 | 1015.2 |
| 20260906143513 | 64 | 26 | 3.5 | 0.0 | 0.00 | 0.00 | 0.00 | 72 | 1015.3 |
| 20260906143012 | 64 | 19 | 4.3 | 0.0 | 0.00 | 0.00 | 0.00 | 72 | 1015.2 |
| 20260906142512 | 64 | 46 | 4.3 | 0.0 | 0.00 | 0.00 | 0.00 | 74 | 1015.2 |
| 20260906142013 | 64 | 59 | 4.3 | 0.0 | 0.00 | 0.00 | 0.00 | 72 | 1015.2 |
| 20260906141515 | 64 | 52 | 4.3 | 0.0 | 0.00 | 0.00 | 0.00 | 74 | 1015.3 |
| 20260906141013 | 64 | 48 | 5.2 | 0.0 | 0.00 | 0.00 | 0.00 | 73 | 1015.3 |
| 20260906140510 | 63 | 103 | 6.1 | 0.0 | 0.00 | 0.00 | 0.00 | 75 | 1015.1 |
| 20260906140018 | 63 | 60 | 5.2 | 0.0 | 0.00 | 0.00 | 0.00 | 74 | 1015.1 |
| 20260906135510 | 63 | 67 | 5.2 | 0.0 | 0.00 | 0.00 | 0.00 | 75 | 1015.1 |
| 20260906135012 | 63 | 73 | 6.1 | 0.0 | 0.00 | 0.00 | 0.00 | 75 | 1015.1 |
| 20260906134509 | 63 | 81 | 6.1 | 0.0 | 0.00 | 0.00 | 0.00 | 75 | 1015.1 |
| 20260906134009 | 63 | 57 | 5.2 | 0.0 | 0.00 | 0.00 | 0.00 | 76 | 1015.0 |
| 20260906133507 | 63 | 49 | 6.1 | 0.0 | 0.00 | 0.00 | 0.00 | 77 | 1015.0 |
| 20260906133018 | 63 | 55 | 6.1 | 0.0 | 0.00 | 0.00 | 0.00 | 76 | 1015.0 |
| 20260906132507 | 63 | 42 | 5.2 | 0.0 | 0.00 | 0.00 | 0.00 | 78 | 1015.0 |
| 20260906132006 | 62 | 26 | 4.3 | 0.0 | 0.00 | 0.00 | 0.00 | 79 | 1015.0 |
| 20260906131506 | 62 | 68 | 4.3 | 0.0 | 0.00 | 0.00 | 0.00 | 80 | 1014.9 |
| 20260906131004 | 62 | 61 | 4.3 | 0.0 | 0.00 | 0.00 | 0.00 | 80 | 1014.9 |
| 20260906130505 | 62 | 40 | 5.2 | 0.0 | 0.00 | 0.00 | 0.00 | 81 | 1014.9 |
| 20260906130013 | 62 | 66 | 4.3 | 0.0 | 0.00 | 0.00 | 0.00 | 80 | 1015.1 |
| 20260906125504 | 62 | 46 | 4.3 | 0.0 | 0.00 | 0.00 | 0.00 | 80 | 1015.1 |
| 20260906125006 | 62 | 70 | 4.3 | 0.0 | 0.00 | 0.00 | 0.00 | 81 | 1015.0 |
| 20260906124503 | 62 | 63 | 4.3 | 0.0 | 0.00 | 0.00 | 0.00 | 82 | 1015.0 |
| 20260906124003 | 62 | 5 | 4.3 | 0.0 | 0.00 | 0.00 | 0.00 | 83 | 1015.0 |
| 20260906123505 | 62 | 26 | 4.3 | 0.0 | 0.00 | 0.00 | 0.00 | 84 | 1015.1 |
| 20260906123003 | 62 | 39 | 5.2 | 0.0 | 0.00 | 0.00 | 0.00 | 83 | 1015.1 |
| 20260906122502 | 62 | 27 | 5.2 | 0.0 | 0.00 | 0.00 | 0.00 | 83 | 1015.0 |
| 20260906122002 | 62 | 36 | 5.2 | 0.0 | 0.00 | 0.00 | 0.00 | 83 | 1014.9 |
| 20260906121502 | 62 | 37 | 5.2 | 0.0 | 0.00 | 0.00 | 0.00 | 83 | 1014.8 |
| 20260906121102 | 62 | 32 | 6.1 | 0.0 | 0.00 | 0.00 | 0.00 | 83 | 1014.9 |
| 20260906120559 | 61 | 32 | 6.1 | 0.0 | 0.00 | 0.00 | 0.00 | 83 | 1014.8 |
| 20260906120133 | 61 | 5 | 6.1 | 0.0 | 0.00 | 0.00 | 0.00 | 83 | 1014.8 |
| 20260906115559 | 61 | 26 | 6.1 | 0.0 | 0.00 | 0.00 | 0.00 | 84 | 1014.8 |
| 20260906115057 | 61 | 42 | 5.2 | 0.0 | 0.00 | 0.00 | 0.00 | 84 | 1014.7 |
| 20260906114612 | 61 | 22 | 6.1 | 0.0 | 0.00 | 0.00 | 0.00 | 84 | 1014.5 |
| 20260906114056 | 61 | 48 | 6.1 | 0.0 | 0.00 | 0.00 | 0.00 | 84 | 1014.4 |
| 20260906113557 | 61 | 61 | 5.2 | 0.0 | 0.00 | 0.00 | 0.00 | 84 | 1014.4 |
| 20260906113055 | 61 | 53 | 5.2 | 0.0 | 0.00 | 0.00 | 0.00 | 83 | 1014.4 |
| 20260906112555 | 61 | 58 | 6.1 | 0.0 | 0.00 | 0.00 | 0.00 | 85 | 1014.3 |
| 20260906112055 | 61 | 49 | 6.1 | 0.0 | 0.00 | 0.00 | 0.00 | 85 | 1014.2 |
| 20260906111603 | 61 | 28 | 6.1 | 0.0 | 0.00 | 0.00 | 0.00 | 84 | 1014.1 |
| 20260906111051 | 61 | 54 | 6.1 | 0.0 | 0.00 | 0.00 | 0.00 | 85 | 1014.0 |
| 20260906110551 | 61 | 55 | 5.2 | 0.0 | 0.00 | 0.00 | 0.00 | 84 | 1014.0 |
| 20260906110052 | 61 | 50 | 5.2 | 0.0 | 0.00 | 0.00 | 0.00 | 85 | 1013.9 |
| 20260906105549 | 61 | 20 | 5.2 | 0.0 | 0.00 | 0.00 | 0.00 | 85 | 1013.9 |
| 20260906105052 | 61 | 360 | 6.1 | 0.0 | 0.00 | 0.00 | 0.00 | 85 | 1013.7 |
| 20260906104548 | 61 | 26 | 6.1 | 0.0 | 0.00 | 0.00 | 0.00 | 85 | 1013.7 |
| 20260906104049 | 61 | 16 | 5.2 | 0.0 | 0.00 | 0.00 | 0.00 | 85 | 1013.6 |
| 20260906103546 | 61 | 21 | 4.3 | 0.0 | 0.00 | 0.00 | 0.00 | 85 | 1013.5 |
| 20260906103051 | 61 | 26 | 4.3 | 0.0 | 0.00 | 0.00 | 0.00 | 84 | 1013.5 |
| 20260906102546 | 61 | 26 | 4.3 | 0.0 | 0.00 | 0.00 | 0.00 | 82 | 1013.4 |
| 20260906102044 | 61 | 47 | 4.3 | 0.0 | 0.00 | 0.00 | 0.00 | 82 | 1013.3 |
| 20260906101544 | 61 | 78 | 5.2 | 0.0 | 0.00 | 0.00 | 0.00 | 84 | 1013.2 |
| 20260906101043 | 61 | 57 | 6.1 | 0.0 | 0.00 | 0.00 | 0.00 | 83 | 1013.1 |
| 20260906100542 | 61 | 61 | 5.2 | 0.0 | 0.00 | 0.00 | 0.00 | 84 | 1013.2 |
| 20260906100055 | 61 | 28 | 4.3 | 0.0 | 0.00 | 0.00 | 0.00 | 84 | 1013.2 |
| 20260906095541 | 61 | 34 | 3.5 | 0.0 | 0.00 | 0.00 | 0.00 | 84 | 1013.2 |
| 20260906095041 | 61 | 27 | 4.3 | 0.0 | 0.00 | 0.00 | 0.00 | 84 | 1013.1 |
| 20260906094549 | 61 | 59 | 4.3 | 0.0 | 0.00 | 0.00 | 0.00 | 83 | 1013.1 |
| 20260906094040 | 61 | 53 | 4.3 | 0.0 | 0.00 | 0.00 | 0.00 | 84 | 1013.1 |
| 20260906093540 | 62 | 42 | 5.2 | 0.0 | 0.00 | 0.00 | 0.00 | 86 | 1013.1 |
| 20260906093041 | 62 | 20 | 5.2 | 0.0 | 0.00 | 0.00 | 0.00 | 86 | 1013.1 |
| 20260906092539 | 62 | 27 | 5.2 | 0.0 | 0.00 | 0.00 | 0.00 | 85 | 1013.1 |
| 20260906092038 | 62 | 29 | 6.1 | 0.0 | 0.00 | 0.00 | 0.00 | 86 | 1013.0 |
| 20260906091539 | 62 | 5 | 6.1 | 0.0 | 0.00 | 0.00 | 0.00 | 85 | 1012.9 |
| 20260906091037 | 62 | 5 | 6.1 | 0.0 | 0.00 | 0.00 | 0.00 | 86 | 1012.9 |
| 20260906090535 | 62 | 9 | 6.1 | 0.0 | 0.00 | 0.00 | 0.00 | 86 | 1012.8 |
| 20260906090035 | 62 | 9 | 5.2 | 0.0 | 0.00 | 0.00 | 0.00 | 86 | 1012.7 |
| 20260906085534 | 62 | 48 | 4.3 | 0.0 | 0.00 | 0.00 | 0.00 | 85 | 1012.7 |
| 20260906085035 | 62 | 46 | 4.3 | 0.0 | 0.00 | 0.00 | 0.00 | 85 | 1012.8 |
| 20260906084532 | 62 | 29 | 4.3 | 0.0 | 0.00 | 0.00 | 0.00 | 84 | 1012.8 |
| 20260906084032 | 62 | 32 | 5.2 | 0.0 | 0.00 | 0.00 | 0.00 | 85 | 1012.7 |
| 20260906083531 | 62 | 40 | 5.2 | 0.0 | 0.00 | 0.00 | 0.00 | 85 | 1012.6 |
| 20260906083031 | 62 | 5 | 4.3 | 0.0 | 0.00 | 0.00 | 0.00 | 85 | 1012.6 |
| 20260906082531 | 62 | 11 | 4.3 | 0.0 | 0.00 | 0.00 | 0.00 | 84 | 1012.5 |
| 20260906082031 | 62 | 52 | 4.3 | 0.0 | 0.00 | 0.00 | 0.00 | 85 | 1012.5 |
| 20260906081531 | 62 | 30 | 4.3 | 0.0 | 0.00 | 0.00 | 0.00 | 86 | 1012.4 |
| 20260906081030 | 62 | 34 | 4.3 | 0.0 | 0.00 | 0.00 | 0.00 | 86 | 1012.3 |
| 20260906080530 | 62 | 59 | 4.3 | 0.0 | 0.00 | 0.00 | 0.00 | 84 | 1012.4 |
| 20260906080029 | 62 | 37 | 4.3 | 0.0 | 0.00 | 0.00 | 0.00 | 85 | 1012.4 |
| 20260906075529 | 63 | 46 | 4.3 | 0.0 | 0.00 | 0.00 | 0.00 | 85 | 1012.5 |
| 20260906075029 | 63 | 10 | 4.3 | 0.0 | 0.00 | 0.00 | 0.00 | 86 | 1012.4 |
| 20260906074529 | 63 | 44 | 5.2 | 0.0 | 0.00 | 0.00 | 0.00 | 87 | 1012.3 |
| 20260906074028 | 63 | 28 | 5.2 | 0.0 | 0.00 | 0.00 | 0.00 | 86 | 1012.3 |
| 20260906073528 | 63 | 28 | 4.3 | 0.0 | 0.00 | 0.00 | 0.00 | 88 | 1012.2 |
| 20260906073027 | 62 | 49 | 4.3 | 0.0 | 0.00 | 0.00 | 0.00 | 86 | 1012.3 |
| 20260906072527 | 62 | 55 | 3.5 | 0.0 | 0.00 | 0.00 | 0.00 | 87 | 1012.2 |
| 20260906072026 | 62 | 53 | 3.5 | 0.0 | 0.00 | 0.00 | 0.00 | 87 | 1012.3 |
| 20260906071526 | 62 | 57 | 2.6 | 0.0 | 0.00 | 0.00 | 0.00 | 87 | 1012.3 |
| 20260906071026 | 62 | 49 | 2.6 | 0.0 | 0.00 | 0.00 | 0.00 | 86 | 1012.3 |
| 20260906070526 | 62 | 66 | 3.5 | 0.0 | 0.00 | 0.00 | 0.00 | 86 | 1012.2 |
| 20260906070025 | 62 | 69 | 3.5 | 0.0 | 0.00 | 0.00 | 0.00 | 86 | 1012.2 |
| 20260906065524 | 62 | 53 | 2.6 | 0.0 | 0.00 | 0.00 | 0.00 | 86 | 1012.2 |
| 20260906065028 | 62 | 73 | 2.6 | 0.0 | 0.00 | 0.00 | 0.00 | 86 | 1012.2 |
| 20260906064523 | 62 | 59 | 2.6 | 0.0 | 0.00 | 0.00 | 0.00 | 85 | 1012.1 |
| 20260906064027 | 63 | 60 | 3.5 | 0.0 | 0.00 | 0.00 | 0.00 | 86 | 1012.2 |
| 20260906063524 | 63 | 46 | 4.3 | 0.0 | 0.00 | 0.00 | 0.00 | 85 | 1012.2 |
| 20260906063029 | 63 | 59 | 4.3 | 0.0 | 0.00 | 0.00 | 0.00 | 85 | 1012.2 |
| 20260906062522 | 63 | 67 | 4.3 | 0.0 | 0.00 | 0.00 | 0.00 | 85 | 1012.2 |
| 20260906062022 | 63 | 61 | 3.5 | 0.0 | 0.00 | 0.00 | 0.00 | 85 | 1012.2 |
| 20260906061521 | 63 | 63 | 4.3 | 0.0 | 0.00 | 0.00 | 0.00 | 85 | 1012.3 |
| 20260906061019 | 63 | 58 | 3.5 | 0.0 | 0.00 | 0.00 | 0.00 | 84 | 1012.3 |
| 20260906060519 | 63 | 51 | 3.5 | 0.0 | 0.00 | 0.00 | 0.00 | 84 | 1012.2 |
| 20260906060021 | 63 | 59 | 3.5 | 0.0 | 0.00 | 0.00 | 0.00 | 83 | 1012.2 |
| 20260906055518 | 64 | 53 | 4.3 | 0.0 | 0.00 | 0.00 | 0.00 | 83 | 1012.2 |
| 20260906055018 | 64 | 52 | 3.5 | 0.0 | 0.00 | 0.00 | 0.00 | 83 | 1012.3 |
| 20260906054525 | 64 | 61 | 3.5 | 0.0 | 0.00 | 0.00 | 0.00 | 83 | 1012.3 |
| 20260906054017 | 64 | 36 | 4.3 | 0.0 | 0.00 | 0.00 | 0.00 | 84 | 1012.4 |
| 20260906053517 | 64 | 32 | 4.3 | 0.0 | 0.00 | 0.00 | 0.00 | 83 | 1012.5 |
| 20260906053018 | 64 | 56 | 3.5 | 0.0 | 0.00 | 0.00 | 0.00 | 83 | 1012.5 |
| 20260906052517 | 64 | 53 | 2.6 | 0.0 | 0.00 | 0.00 | 0.00 | 82 | 1012.5 |
| 20260906052017 | 64 | 57 | 2.6 | 0.0 | 0.00 | 0.00 | 0.00 | 82 | 1012.5 |
| 20260906051519 | 64 | 82 | 2.6 | 0.0 | 0.00 | 0.00 | 0.00 | 82 | 1012.5 |
| 20260906051014 | 64 | 59 | 3.5 | 0.0 | 0.00 | 0.00 | 0.00 | 83 | 1012.5 |
| 20260906050515 | 64 | 23 | 3.5 | 0.0 | 0.00 | 0.00 | 0.00 | 83 | 1012.4 |
| 20260906050017 | 64 | 29 | 3.5 | 0.0 | 0.00 | 0.00 | 0.00 | 83 | 1012.5 |
| 20260906045514 | 64 | 73 | 3.5 | 0.0 | 0.00 | 0.00 | 0.00 | 82 | 1012.5 |
| 20260906045012 | 64 | 62 | 3.5 | 0.0 | 0.00 | 0.00 | 0.00 | 82 | 1012.5 |
| 20260906044512 | 64 | 73 | 3.5 | 0.0 | 0.00 | 0.00 | 0.00 | 81 | 1012.6 |
| 20260906044012 | 64 | 64 | 4.3 | 0.0 | 0.00 | 0.00 | 0.00 | 81 | 1012.5 |
| 20260906043517 | 64 | 34 | 4.3 | 0.0 | 0.00 | 0.00 | 0.00 | 82 | 1012.5 |
| 20260906043011 | 64 | 38 | 4.3 | 0.0 | 0.00 | 0.00 | 0.00 | 83 | 1012.5 |
| 20260906042510 | 64 | 40 | 4.3 | 0.0 | 0.00 | 0.00 | 0.00 | 82 | 1012.6 |
| 20260906042011 | 64 | 29 | 4.3 | 0.0 | 0.00 | 0.00 | 0.00 | 82 | 1012.5 |
| 20260906041510 | 64 | 36 | 5.2 | 0.0 | 0.00 | 0.00 | 0.00 | 82 | 1012.5 |
| 20260906041009 | 64 | 26 | 5.2 | 0.0 | 0.00 | 0.00 | 0.00 | 83 | 1012.6 |
| 20260906040508 | 64 | 43 | 4.3 | 0.0 | 0.00 | 0.00 | 0.00 | 82 | 1012.6 |
| 20260906040007 | 64 | 55 | 4.3 | 0.0 | 0.00 | 0.00 | 0.00 | 81 | 1012.5 |
| 20260906035506 | 64 | 15 | 4.3 | 0.0 | 0.00 | 0.00 | 0.00 | 81 | 1012.5 |
| 20260906035010 | 64 | 60 | 5.2 | 0.0 | 0.00 | 0.00 | 0.00 | 79 | 1012.4 |
| 20260906034506 | 64 | 54 | 5.2 | 0.0 | 0.00 | 0.00 | 0.00 | 80 | 1012.4 |
| 20260906034005 | 64 | 49 | 5.2 | 0.0 | 0.00 | 0.00 | 0.00 | 81 | 1012.3 |
| 20260906033505 | 64 | 31 | 5.2 | 0.0 | 0.00 | 0.00 | 0.00 | 79 | 1012.1 |
| 20260906033005 | 64 | 65 | 5.2 | 0.0 | 0.00 | 0.00 | 0.00 | 81 | 1012.1 |
| 20260906032506 | 64 | 61 | 5.2 | 0.0 | 0.00 | 0.00 | 0.00 | 79 | 1012.1 |
| 20260906032005 | 64 | 61 | 5.2 | 0.0 | 0.00 | 0.00 | 0.00 | 79 | 1012.1 |
| 20260906031513 | 65 | 79 | 6.1 | 0.0 | 0.00 | 0.00 | 0.00 | 79 | 1012.1 |
| 20260906031007 | 65 | 65 | 6.1 | 0.0 | 0.00 | 0.00 | 0.00 | 79 | 1012.2 |
| 20260906030504 | 64 | 55 | 4.3 | 0.0 | 0.00 | 0.00 | 0.00 | 79 | 1012.1 |
| 20260906030006 | 65 | 32 | 3.5 | 0.0 | 0.00 | 0.00 | 0.00 | 80 | 1012.0 |
| 20260906025505 | 65 | 73 | 3.5 | 0.0 | 0.00 | 0.00 | 0.00 | 79 | 1012.0 |
| 20260906025002 | 65 | 98 | 3.5 | 0.0 | 0.00 | 0.00 | 0.00 | 79 | 1011.9 |
| 20260906024506 | 65 | 78 | 3.5 | 0.0 | 0.00 | 0.00 | 0.00 | 79 | 1011.9 |
| 20260906024002 | 65 | 61 | 2.6 | 0.0 | 0.00 | 0.00 | 0.00 | 79 | 1011.8 |
| 20260906023501 | 65 | 82 | 2.6 | 0.0 | 0.00 | 0.00 | 0.00 | 79 | 1011.9 |
| 20260906023001 | 65 | 88 | 3.5 | 0.0 | 0.00 | 0.00 | 0.00 | 79 | 1011.8 |
| 20260906022501 | 65 | 71 | 2.6 | 0.0 | 0.00 | 0.00 | 0.00 | 79 | 1011.9 |
| 20260906022002 | 65 | 69 | 2.6 | 0.0 | 0.00 | 0.00 | 0.00 | 80 | 1011.9 |
| 20260906021501 | 65 | 79 | 2.6 | 0.0 | 0.00 | 0.00 | 0.00 | 80 | 1011.9 |
| 20260906021059 | 65 | 87 | 2.6 | 0.0 | 0.00 | 0.00 | 0.00 | 80 | 1011.8 |
| 20260906020600 | 65 | 70 | 1.7 | 0.0 | 0.00 | 0.00 | 0.00 | 81 | 1011.8 |
| 20260906020101 | 65 | 81 | 1.7 | 0.0 | 0.00 | 0.00 | 0.00 | 82 | 1011.7 |
| 20260906015559 | 65 | 111 | 1.7 | 0.0 | 0.00 | 0.00 | 0.00 | 82 | 1011.7 |
| 20260906015059 | 65 | 91 | 2.6 | 0.0 | 0.00 | 0.00 | 0.00 | 83 | 1011.8 |
| 20260906014559 | 65 | 59 | 2.6 | 0.0 | 0.00 | 0.00 | 0.00 | 84 | 1011.7 |
| 20260906014059 | 65 | 62 | 1.7 | 0.0 | 0.00 | 0.00 | 0.00 | 85 | 1011.6 |
| 20260906013602 | 65 | 63 | 0.9 | 0.0 | 0.00 | 0.00 | 0.00 | 86 | 1011.5 |
| 20260906013105 | 65 | 84 | 0.9 | 0.0 | 0.00 | 0.00 | 0.00 | 85 | 1011.5 |
| 20260906012559 | 65 | 119 | 0.0 | 0.0 | 0.00 | 0.00 | 0.00 | 85 | 1011.6 |
| 20260906012058 | 65 | 118 | 0.0 | 0.0 | 0.00 | 0.00 | 0.00 | 85 | 1011.6 |
| 20260906011602 | 65 | 118 | 0.0 | 0.0 | 0.00 | 0.00 | 0.00 | 85 | 1011.6 |
| 20260906011058 | 66 | 118 | 0.0 | 0.0 | 0.00 | 0.00 | 0.00 | 85 | 1011.6 |
| 20260906010557 | 66 | 118 | 0.9 | 0.0 | 0.00 | 0.00 | 0.00 | 85 | 1011.6 |
| 20260906010056 | 66 | 118 | 0.9 | 0.0 | 0.00 | 0.00 | 0.00 | 85 | 1011.5 |
| 20260906005558 | 66 | 119 | 1.7 | 0.0 | 0.00 | 0.00 | 0.00 | 85 | 1011.4 |
| 20260906005056 | 66 | 119 | 2.6 | 0.0 | 0.00 | 0.00 | 0.00 | 84 | 1011.4 |
| 20260906004557 | 66 | 118 | 2.6 | 0.0 | 0.00 | 0.00 | 0.00 | 85 | 1011.4 |
| 20260906004055 | 67 | 101 | 2.6 | 0.0 | 0.00 | 0.00 | 0.00 | 84 | 1011.4 |
| 20260906003555 | 67 | 42 | 1.7 | 0.0 | 0.00 | 0.00 | 0.00 | 83 | 1011.4 |
| 20260906003055 | 67 | 51 | 1.7 | 0.0 | 0.00 | 0.00 | 0.00 | 83 | 1011.4 |
| 20260906002554 | 67 | 80 | 2.6 | 0.0 | 0.00 | 0.00 | 0.00 | 83 | 1011.3 |
| 20260906002058 | 67 | 42 | 3.5 | 0.0 | 0.00 | 0.00 | 0.00 | 83 | 1011.3 |
| 20260906001555 | 67 | 57 | 3.5 | 0.0 | 0.00 | 0.00 | 0.00 | 82 | 1011.4 |
| 20260906001053 | 67 | 355 | 3.5 | 0.0 | 0.00 | 0.00 | 0.00 | 82 | 1011.2 |
| 20260906000556 | 67 | 13 | 3.5 | 0.0 | 0.00 | 0.00 | 0.00 | 82 | 1011.2 |
| 20260906000059 | 67 | 65 | 2.6 | 0.0 | 0.00 | 0.00 | 0.00 | 82 | 1011.2 |
| 20260905235552 | 67 | 5 | 2.6 | 0.0 | 0.00 | 0.00 | 0.00 | 81 | 1011.1 |
| 20260905235052 | 67 | 51 | 2.6 | 0.0 | 0.00 | 0.00 | 0.00 | 81 | 1011.1 |
| 20260905234556 | 67 | 360 | 2.6 | 0.0 | 0.00 | 0.00 | 0.00 | 81 | 1011.0 |
| 20260905234051 | 68 | 25 | 2.6 | 0.0 | 0.00 | 0.00 | 0.00 | 81 | 1010.9 |
| 20260905233551 | 68 | 59 | 2.6 | 0.0 | 0.00 | 0.00 | 0.00 | 81 | 1010.9 |
| 20260905233053 | 68 | 32 | 2.6 | 0.0 | 0.00 | 0.00 | 0.00 | 79 | 1010.9 |
| 20260905232551 | 68 | 13 | 2.6 | 0.0 | 0.00 | 0.00 | 0.00 | 80 | 1010.9 |
| 20260905232055 | 68 | 19 | 1.7 | 0.0 | 0.00 | 0.00 | 0.00 | 80 | 1010.9 |
| 20260905231551 | 68 | 22 | 1.7 | 0.0 | 0.00 | 0.00 | 0.00 | 80 | 1010.9 |
| 20260905231050 | 68 | 28 | 1.7 | 0.0 | 0.00 | 0.00 | 0.00 | 78 | 1011.0 |
| 20260905230555 | 68 | 71 | 1.7 | 0.0 | 0.00 | 0.00 | 0.00 | 78 | 1011.0 |
| 20260905230049 | 68 | 73 | 1.7 | 0.0 | 0.00 | 0.00 | 0.00 | 77 | 1011.1 |
| 20260905225550 | 68 | 96 | 2.6 | 0.0 | 0.00 | 0.00 | 0.00 | 77 | 1011.0 |
| 20260905225051 | 68 | 90 | 2.6 | 0.0 | 0.00 | 0.00 | 0.00 | 78 | 1010.9 |
| 20260905224549 | 68 | 58 | 2.6 | 0.0 | 0.00 | 0.00 | 0.00 | 78 | 1010.8 |
| 20260905224049 | 68 | 82 | 3.5 | 0.0 | 0.00 | 0.00 | 0.00 | 78 | 1010.8 |
| 20260905223548 | 68 | 78 | 4.3 | 0.0 | 0.00 | 0.00 | 0.00 | 77 | 1010.6 |
| 20260905223048 | 68 | 79 | 4.3 | 0.0 | 0.00 | 0.00 | 0.00 | 77 | 1010.6 |
| 20260905222548 | 68 | 53 | 4.3 | 0.0 | 0.00 | 0.00 | 0.00 | 76 | 1010.5 |